Current weather by "City, St" or "zip code"  
 

Current Conditions: York, York Municipal Airport, NE

Fair


45.0 F

Last Updated on Oct 31 2020, 4:55 am CDT
Humidity: 81%
Wind Speed: S 10.4 mph
Barometer 29.89 in
Dewpoint: 39.2 F
Visibility: 10.00 mi
Precip: --
Heat Index: NA
Wind Chill: 40 F
Current conditions at:

York, York Municipal Airport, NE (KJYR)

Lat: 40.89667 Lon: 97.62278

Local Radar Image active severe weather and emergency alerts image image weather storm and storm spotter reports image weather observation monitoring service image
Local
Radar
Active
Alerts
Storm Reports Obs
Monitoring

Sign-up For Email & Text Message Weather Alert Notification Services



Advertise Here

Observation History for York, York Municipal Airport, NE


Time Wind
(mph)
Vis
(mi)
Weather Precip (in) Temperature (F) Relative
Humidity
Wind
Chill
(F)
Heat
Index
(F)
Pressure
Air Dwpt altimeter
(in)
sea level
(mb)
Rmks
4:55 am CDT S 10.4 10.00 Fair -- 45.0 39.2 81% 40 NA 29.89 M
3:55 am CDT S 11.5 10.00 Fair -- 45.0 39.2 81% 39 NA 29.91 M
2:55 am CDT S 11.5 10.00 Fair -- 45.0 39.2 81% 39 NA 29.93 M
1:55 am CDT S 11.5 10.00 Fair -- 46.0 39.2 76% 41 NA 29.95 M
12:55 am CDT S 11.5 10.00 Fair -- 48.0 39.2 71% 43 NA 29.97 M
11:55 pm CDT S 11.5 10.00 Fair -- 48.0 37.4 66% 43 NA 29.99 M
10:55 pm CDT SE 9.2 G 16.1 10.00 Fair -- 48.0 37.4 66% 44 NA 30.00 M
9:55 pm CDT SE 10.4 10.00 Fair -- 48.0 35.6 62% 43 NA 30.01 M
9:35 pm CDT SE 9.2 10.00 Fair -- 48.0 35.6 62% 44 NA 30.02 M
8:55 pm CDT SE 9.2 10.00 Fair -- 50.0 37.4 62% 46 NA 30.03 M
7:55 pm CDT SE 10.4 10.00 Fair -- 54.0 37.4 54% 51 NA 30.05 M
7:35 pm CDT SE 9.2 10.00 Fair -- 54.0 37.4 54% 51 NA 30.05 M
6:55 pm CDT SE 6.9 10.00 Fair -- 55.0 37.4 51% 53 NA 30.05 M
5:55 pm CDT SE 9.2 10.00 Fair -- 63.0 37.4 39% 62 NA 30.06 M
4:55 pm CDT S 8.1 10.00 Fair -- 64.0 37.4 37% NA NA 30.07 M
3:55 pm CDT 5.8 10.00 Fair -- 66.0 37.4 35% NA NA 30.09 M
2:55 pm CDT SE 4.6 10.00 Fair -- 64.0 37.4 37% NA NA 30.11 M
1:55 pm CDT N 0.0 10.00 Fair -- 63.0 39.2 42% NA NA 30.13 M
1:35 pm CDT N 0.0 10.00 Fair -- 61.0 39.2 45% NA NA 30.15 M
12:55 pm CDT N 0.0 10.00 Fair -- 59.0 39.2 48% NA NA 30.17 M
11:55 am CDT N 0.0 10.00 Fair -- 55.0 39.2 55% NA NA 30.18 M
10:55 am CDT N 9.2 10.00 Fair -- 52.0 37.4 58% 49 NA 30.19 M
9:55 am CDT N 4.6 10.00 Fair -- 46.0 37.4 71% 44 NA 30.18 M
9:35 am CDT NW 5.8 10.00 Fair -- 43.0 37.4 81% 39 NA 30.17 M

Regional Weather Observation


Aurora, Aurora Municipal Airport, NE (KAUH)

Fair
45.0 F

Columbus, Columbus Municipal Airport, NE (KOLU)

Fair
46.0 F

Grand Island, Central Nebraska Regional Airport, NE (KGRI)

Fair
47.0 F

Albion Municipal Airport, NE (KBVN)

Fair
41.0 F

Hastings, Hastings Municipal Airport, NE (KHSI)

Fair
47.0 F

Norfolk, Stefan Memorial Airport, NE (KOFK)

Fair
48.0 F